FDX375 WSSS-RJBB

Flight info

Callsign FDX375
Flight time N/A
Altitude 32000
Route TOMAN5B TOMAN L625 AKMON/K0913F320 L625 ALDAS/K0904F350 L625 ANOKI/N0487F350 L625 AVMUP/N0482F360 L625 MEVIN/N0482F350 B462 KAZIK Y62 YURIX/N0474F370 Y26 SEPIA B597 MADOG Y53 NIXOV
Aircraft MD11/H-SDE1E2E3FGHIJ2J3J4J5M1RWXY/LB1D1

Departure

Time N/A
Airport Singapore Changi Airport (WSSS)

Arrival

Time 2026-05-04 00:13
Airport Kansai International Airport (RJBB)
Time Latitude Longitude Altitude Speed Heading
2026-05-03 20:44 13.82523 114.33882 34880 ft 484 kts 34°
2026-05-03 20:44 13.85227 114.35916 34880 ft 484 kts 34°
2026-05-03 20:45 13.90690 114.40032 34875 ft 484 kts 34°
2026-05-03 20:45 13.96056 114.44185 34875 ft 484 kts 38°
2026-05-03 20:46 14.01006 114.48935 34878 ft 485 kts 45°
2026-05-03 20:46 14.05612 114.54023 34880 ft 486 kts 46°
2026-05-03 20:47 14.10230 114.59110 34881 ft 486 kts 45°
2026-05-03 20:47 14.14881 114.64165 34889 ft 487 kts 45°
2026-05-03 20:48 14.19543 114.69278 34884 ft 487 kts 45°
2026-05-03 20:48 14.24183 114.74334 34886 ft 487 kts 45°
2026-05-03 20:49 14.28830 114.79423 34885 ft 487 kts 45°
2026-05-03 20:49 14.33487 114.84507 34887 ft 487 kts 45°
2026-05-03 20:50 14.38140 114.89595 34893 ft 488 kts 45°
2026-05-03 20:50 14.42813 114.94697 34892 ft 489 kts 45°
2026-05-03 20:51 14.47496 114.99808 34891 ft 489 kts 45°
2026-05-03 20:51 14.52155 115.04899 34893 ft 489 kts 45°
2026-05-03 20:52 14.56844 115.10012 34891 ft 489 kts 45°
2026-05-03 20:52 14.61503 115.15125 34889 ft 490 kts 45°
2026-05-03 20:53 14.66130 115.20243 34884 ft 489 kts 45°
2026-05-03 20:53 14.70804 115.25391 34885 ft 489 kts 45°
2026-05-03 20:54 14.75450 115.30516 34885 ft 489 kts 45°
2026-05-03 20:54 14.82435 115.38215 34881 ft 490 kts 45°
2026-05-03 20:55 14.87097 115.43353 34883 ft 491 kts 45°
2026-05-03 20:55 14.91752 115.48479 34884 ft 490 kts 45°
2026-05-03 20:56 14.96434 115.53638 34884 ft 490 kts 45°
2026-05-03 20:56 15.01098 115.58765 34881 ft 490 kts 45°
2026-05-03 20:57 15.05761 115.63906 34885 ft 490 kts 45°
2026-05-03 20:57 15.10436 115.69041 34880 ft 491 kts 45°
2026-05-03 20:58 15.15104 115.74187 34878 ft 490 kts 45°
2026-05-03 20:58 15.19756 115.79343 34884 ft 489 kts 45°
2026-05-03 20:59 15.24373 115.84491 34884 ft 489 kts 45°
2026-05-03 20:59 15.29011 115.89645 34888 ft 489 kts 45°
2026-05-03 21:00 15.32892 115.93964 34887 ft 490 kts 45°
2026-05-03 21:00 15.38325 116.00004 34879 ft 490 kts 45°
2026-05-03 21:01 15.42961 116.05153 34886 ft 490 kts 45°
2026-05-03 21:01 15.47611 116.10322 34885 ft 490 kts 45°
2026-05-03 21:02 15.52243 116.15462 34889 ft 490 kts 45°
2026-05-03 21:02 15.56888 116.20625 34892 ft 490 kts 45°
2026-05-03 21:03 15.61560 116.25802 34900 ft 492 kts 45°
2026-05-03 21:03 15.66245 116.31012 34901 ft 493 kts 45°
2026-05-03 21:04 15.70919 116.36187 34900 ft 493 kts 45°
2026-05-03 21:04 15.75602 116.41418 34906 ft 494 kts 45°
2026-05-03 21:05 15.80251 116.46652 34907 ft 494 kts 45°
2026-05-03 21:05 15.84942 116.51912 34909 ft 495 kts 45°
2026-05-03 21:06 15.89596 116.57134 34908 ft 495 kts 45°
2026-05-03 21:06 15.94308 116.62419 34905 ft 495 kts 45°
2026-05-03 21:07 15.98982 116.67658 34895 ft 495 kts 45°
2026-05-03 21:07 16.03647 116.72887 34891 ft 495 kts 45°
2026-05-03 21:08 16.08332 116.78136 34886 ft 495 kts 46°
2026-05-03 21:08 16.13007 116.83373 34887 ft 495 kts 46°
2026-05-03 21:09 16.17695 116.88622 34887 ft 496 kts 46°
2026-05-03 21:09 16.22407 116.93899 34883 ft 496 kts 46°
2026-05-03 21:10 16.27077 116.99123 34884 ft 496 kts 46°
2026-05-03 21:10 16.31774 117.04399 34888 ft 496 kts 46°
2026-05-03 21:11 16.36447 117.09683 34890 ft 497 kts 46°
2026-05-03 21:11 16.41149 117.14969 34889 ft 497 kts 46°
2026-05-03 21:12 16.45844 117.20277 34888 ft 497 kts 46°
2026-05-03 21:12 16.50520 117.25568 34891 ft 497 kts 46°
2026-05-03 21:13 16.55199 117.30899 34892 ft 497 kts 46°
2026-05-03 21:13 16.59863 117.36196 34893 ft 497 kts 46°
2026-05-03 21:14 16.64539 117.41505 34893 ft 497 kts 46°
2026-05-03 21:14 16.69217 117.46818 34895 ft 497 kts 46°
2026-05-03 21:15 16.73892 117.52119 34896 ft 497 kts 46°
2026-05-03 21:15 16.78592 117.57456 34901 ft 497 kts 46°
2026-05-03 21:16 16.83273 117.62757 34901 ft 498 kts 46°
2026-05-03 21:16 16.87971 117.68091 34895 ft 498 kts 46°
2026-05-03 21:17 16.92660 117.73399 34897 ft 498 kts 46°
2026-05-03 21:17 16.97345 117.78715 34898 ft 498 kts 46°
2026-05-03 21:18 17.02026 117.84009 34904 ft 497 kts 46°
2026-05-03 21:18 17.06681 117.89317 34905 ft 497 kts 46°
2026-05-03 21:19 17.11338 117.94682 34906 ft 498 kts 46°
2026-05-03 21:19 17.15985 118.00015 34911 ft 498 kts 46°
2026-05-03 21:20 17.20667 118.05379 34911 ft 498 kts 46°
2026-05-03 21:20 17.25343 118.10741 34911 ft 498 kts 46°
2026-05-03 21:21 17.30013 118.16090 34913 ft 499 kts 46°
2026-05-03 21:21 17.34683 118.21440 34909 ft 499 kts 46°
2026-05-03 21:22 17.39378 118.26812 34910 ft 499 kts 46°
2026-05-03 21:22 17.44076 118.32194 34910 ft 499 kts 46°
2026-05-03 21:23 17.48773 118.37565 34910 ft 500 kts 46°
2026-05-03 21:23 17.53464 118.42935 34911 ft 500 kts 46°
2026-05-03 21:24 17.58150 118.48288 34907 ft 501 kts 46°
2026-05-03 21:24 17.62852 118.53708 34903 ft 501 kts 46°
2026-05-03 21:25 17.67534 118.59139 34906 ft 501 kts 46°
2026-05-03 21:25 17.72192 118.64516 34914 ft 501 kts 46°
2026-05-03 21:26 17.76893 118.69955 34913 ft 501 kts 46°
2026-05-03 21:26 17.81586 118.75369 34913 ft 501 kts 46°
2026-05-03 21:27 17.86243 118.80758 34908 ft 501 kts 46°
2026-05-03 21:27 17.90931 118.86159 34907 ft 501 kts 46°
2026-05-03 21:28 17.95652 118.91618 34908 ft 501 kts 46°
2026-05-03 21:28 18.00337 118.97011 34908 ft 501 kts 46°
2026-05-03 21:29 18.05004 119.02440 34913 ft 502 kts 46°
2026-05-03 21:29 18.09676 119.07913 34916 ft 502 kts 46°
2026-05-03 21:30 18.14341 119.13364 34915 ft 501 kts 46°
2026-05-03 21:30 18.19004 119.18801 34916 ft 502 kts 46°
2026-05-03 21:31 18.23679 119.24259 34917 ft 502 kts 46°
2026-05-03 21:31 18.28338 119.29689 34915 ft 503 kts 46°
2026-05-03 21:32 18.33044 119.35180 34912 ft 503 kts 46°
2026-05-03 21:32 18.37728 119.40633 34908 ft 503 kts 46°
2026-05-03 21:33 18.42397 119.46081 34906 ft 502 kts 46°
2026-05-03 21:33 18.47084 119.51529 34904 ft 502 kts 46°
2026-05-03 21:34 18.51787 119.57013 34901 ft 503 kts 46°
2026-05-03 21:34 18.56464 119.62450 34901 ft 503 kts 46°
2026-05-03 21:35 18.61139 119.67935 34893 ft 504 kts 46°
2026-05-03 21:35 18.65825 119.73441 34895 ft 504 kts 46°
2026-05-03 21:36 18.70472 119.78951 34894 ft 504 kts 46°
2026-05-03 21:36 18.75125 119.84448 34897 ft 504 kts 46°
2026-05-03 21:37 18.79814 119.89983 34898 ft 503 kts 46°
2026-05-03 21:37 18.84477 119.95485 34899 ft 503 kts 46°
2026-05-03 21:38 18.89136 120.00982 34905 ft 503 kts 46°
2026-05-03 21:38 18.93787 120.06464 34907 ft 503 kts 46°
2026-05-03 21:39 18.98450 120.11964 34909 ft 504 kts 46°
2026-05-03 21:39 19.03135 120.17481 34910 ft 505 kts 46°
2026-05-03 21:40 19.07809 120.22987 34911 ft 505 kts 46°
2026-05-03 21:40 19.12511 120.28526 34909 ft 505 kts 46°
2026-05-03 21:41 19.17203 120.34049 34906 ft 505 kts 46°
2026-05-03 21:41 19.21838 120.39580 34910 ft 505 kts 46°
2026-05-03 21:42 19.26521 120.45154 34911 ft 506 kts 46°
2026-05-03 21:42 19.31204 120.50716 34906 ft 506 kts 46°
2026-05-03 21:43 19.35874 120.56272 34909 ft 505 kts 46°
2026-05-03 21:43 19.40536 120.61805 34911 ft 506 kts 46°
2026-05-03 21:44 19.45223 120.67399 34911 ft 506 kts 47°
2026-05-03 21:44 19.49861 120.72983 34910 ft 506 kts 47°
2026-05-03 21:45 19.54528 120.78594 34912 ft 506 kts 47°
2026-05-03 21:45 19.59170 120.84164 34914 ft 506 kts 47°
2026-05-03 21:46 19.63815 120.89739 34918 ft 507 kts 46°
2026-05-03 21:46 19.68502 120.95361 34920 ft 508 kts 46°
2026-05-03 21:47 19.73196 121.00991 34920 ft 508 kts 46°
2026-05-03 21:47 19.77873 121.06595 34919 ft 508 kts 46°
2026-05-03 21:48 19.82536 121.12185 34922 ft 508 kts 46°
2026-05-03 21:48 19.87242 121.17817 34921 ft 508 kts 46°
2026-05-03 21:49 19.91937 121.23443 34925 ft 508 kts 46°
2026-05-03 21:49 19.96625 121.29046 34921 ft 508 kts 46°
2026-05-03 21:50 20.01273 121.34671 34924 ft 508 kts 47°
2026-05-03 21:50 20.05915 121.40334 34920 ft 508 kts 47°
2026-05-03 21:51 20.10582 121.46002 34920 ft 509 kts 47°
2026-05-03 21:51 20.15238 121.51659 34921 ft 509 kts 47°
2026-05-03 21:52 20.19903 121.57320 34919 ft 508 kts 46°
2026-05-03 21:52 20.24554 121.62963 34921 ft 508 kts 46°
2026-05-03 21:53 20.29233 121.68639 34922 ft 509 kts 47°
2026-05-03 21:53 20.33900 121.74294 34926 ft 509 kts 47°
2026-05-03 21:54 20.38575 121.79962 34930 ft 509 kts 47°
2026-05-03 21:54 20.43252 121.85625 34928 ft 509 kts 46°
2026-05-03 21:55 20.47937 121.91303 34934 ft 510 kts 46°
2026-05-03 21:55 20.52617 121.96962 34935 ft 510 kts 47°
2026-05-03 21:56 20.57269 122.02672 34937 ft 510 kts 47°
2026-05-03 21:56 20.61890 122.08368 34941 ft 509 kts 47°
2026-05-03 21:57 20.66545 122.14075 34943 ft 510 kts 47°
2026-05-03 21:57 20.71202 122.19795 34943 ft 510 kts 47°
2026-05-03 21:58 20.75856 122.25493 34947 ft 510 kts 47°
2026-05-03 21:58 20.80500 122.31194 34946 ft 510 kts 46°
2026-05-03 21:59 20.85150 122.36884 34946 ft 509 kts 46°
2026-05-03 21:59 20.89819 122.42609 34947 ft 509 kts 46°
2026-05-03 22:00 20.94474 122.48301 34943 ft 510 kts 46°
2026-05-03 22:00 20.99256 122.53883 34939 ft 508 kts 40°
2026-05-03 22:01 21.04839 122.58473 34951 ft 503 kts 30°
2026-05-03 22:01 21.10718 122.62455 34939 ft 503 kts 29°
2026-05-03 22:02 21.16632 122.66533 34929 ft 503 kts 30°
2026-05-03 22:02 21.22459 122.70626 34928 ft 502 kts 30°
2026-05-03 22:03 21.28321 122.74748 34928 ft 502 kts 30°
2026-05-03 22:03 21.34154 122.78841 34934 ft 502 kts 30°
2026-05-03 22:04 21.40016 122.82943 34933 ft 502 kts 30°
2026-05-03 22:04 21.45836 122.87015 34930 ft 502 kts 30°
2026-05-03 22:05 21.51712 122.91123 34927 ft 503 kts 30°
2026-05-03 22:05 21.57575 122.95219 34925 ft 502 kts 30°
2026-05-03 22:06 21.63450 122.99321 34920 ft 502 kts 30°
2026-05-03 22:06 21.69307 123.03409 34917 ft 502 kts 30°
2026-05-03 22:07 21.75156 123.07494 34920 ft 501 kts 30°
2026-05-03 22:07 21.80962 123.11588 34922 ft 501 kts 30°
2026-05-03 22:08 21.86811 123.15747 34927 ft 501 kts 30°
2026-05-03 22:08 21.92658 123.19878 34932 ft 502 kts 30°
2026-05-03 22:09 21.98497 123.24012 34931 ft 501 kts 30°
2026-05-03 22:10 22.07228 123.30182 34937 ft 501 kts 30°
2026-05-03 22:10 22.13077 123.34324 34940 ft 502 kts 30°
2026-05-03 22:11 22.18889 123.38425 34941 ft 502 kts 30°
2026-05-03 22:11 22.24731 123.42557 34943 ft 502 kts 30°
2026-05-03 22:12 22.30590 123.46697 34947 ft 502 kts 30°
2026-05-03 22:12 22.36443 123.50829 34952 ft 502 kts 30°
2026-05-03 22:13 22.42292 123.54967 34950 ft 502 kts 30°
2026-05-03 22:13 22.48128 123.59099 34952 ft 502 kts 30°
2026-05-03 22:14 22.53964 123.63287 34953 ft 503 kts 30°
2026-05-03 22:14 22.59824 123.67455 34952 ft 503 kts 30°
2026-05-03 22:15 22.65668 123.71633 34951 ft 503 kts 30°
2026-05-03 22:15 22.71504 123.75798 34951 ft 503 kts 30°
2026-05-03 22:16 22.77343 123.79958 34952 ft 504 kts 30°
2026-05-03 22:16 22.83185 123.84120 34956 ft 504 kts 30°
2026-05-03 22:17 22.89068 123.88324 34965 ft 504 kts 30°
2026-05-03 22:17 22.94885 123.92529 34961 ft 504 kts 30°
2026-05-03 22:18 23.00759 123.96732 34963 ft 504 kts 30°
2026-05-03 22:18 23.06594 124.00990 34971 ft 505 kts 31°
2026-05-03 22:19 23.12373 124.05296 34967 ft 504 kts 31°
2026-05-03 22:19 23.18196 124.09588 34975 ft 505 kts 31°
2026-05-03 22:20 23.23971 124.13880 34980 ft 506 kts 31°
2026-05-03 22:20 23.29812 124.18195 34976 ft 506 kts 30°
2026-05-03 22:21 23.35645 124.22516 34977 ft 507 kts 31°
2026-05-03 22:21 23.41472 124.26808 34982 ft 507 kts 31°
2026-05-03 22:22 23.47308 124.31186 34980 ft 508 kts 31°
2026-05-03 22:22 23.53111 124.35534 34977 ft 508 kts 31°
2026-05-03 22:23 23.58957 124.39901 34975 ft 507 kts 31°
2026-05-03 22:23 23.64768 124.44247 34975 ft 508 kts 31°
2026-05-03 22:24 23.70622 124.48618 34975 ft 509 kts 31°
2026-05-03 22:24 23.76478 124.52998 34976 ft 509 kts 30°
2026-05-03 22:25 23.82291 124.57331 34980 ft 509 kts 31°
2026-05-03 22:25 23.88164 124.61726 34982 ft 509 kts 30°
2026-05-03 22:26 23.94020 124.66086 34976 ft 509 kts 31°
2026-05-03 22:26 23.99825 124.70433 34972 ft 508 kts 31°
2026-05-03 22:27 24.05672 124.74781 34981 ft 509 kts 31°
2026-05-03 22:27 24.11521 124.79212 34981 ft 509 kts 31°
2026-05-03 22:28 24.17307 124.83621 34993 ft 509 kts 31°
2026-05-03 22:28 24.23161 124.88049 34989 ft 509 kts 31°
2026-05-03 22:29 24.28981 124.92458 35000 ft 510 kts 31°
2026-05-03 22:29 24.34821 124.96885 34996 ft 511 kts 31°
2026-05-03 22:30 24.40659 125.01301 35000 ft 511 kts 31°
2026-05-03 22:30 24.46527 125.05746 35006 ft 511 kts 30°
2026-05-03 22:31 24.52372 125.10165 35008 ft 511 kts 31°
2026-05-03 22:31 24.58229 125.14601 35019 ft 512 kts 30°
2026-05-03 22:32 24.64118 125.19054 35018 ft 512 kts 30°
2026-05-03 22:32 24.69995 125.23499 35025 ft 513 kts 30°
2026-05-03 22:33 24.75849 125.27945 35017 ft 514 kts 32°
2026-05-03 22:33 24.81600 125.32722 35021 ft 516 kts 34°
2026-05-03 22:34 24.87153 125.37669 35024 ft 516 kts 35°
2026-05-03 22:34 24.92738 125.42664 35026 ft 516 kts 35°
2026-05-03 22:35 24.98333 125.47620 35024 ft 517 kts 35°
2026-05-03 22:35 25.03923 125.52608 35033 ft 517 kts 34°
2026-05-03 22:36 25.09532 125.57581 35031 ft 517 kts 35°
2026-05-03 22:36 25.15132 125.62567 35034 ft 516 kts 34°
2026-05-03 22:37 25.20746 125.67545 35035 ft 518 kts 35°
2026-05-03 22:37 25.26368 125.72545 35028 ft 519 kts 35°
2026-05-03 22:38 25.31988 125.77530 35043 ft 520 kts 35°
2026-05-03 22:38 25.37639 125.82549 35031 ft 519 kts 35°
2026-05-03 22:39 25.43243 125.87521 35044 ft 519 kts 35°
2026-05-03 22:39 25.48889 125.92506 35044 ft 520 kts 35°
2026-05-03 22:40 25.54514 125.97575 35057 ft 519 kts 35°
2026-05-03 22:40 25.60072 126.02588 35063 ft 519 kts 35°
2026-05-03 22:41 25.65682 126.07624 35066 ft 519 kts 34°
2026-05-03 22:41 25.71291 126.12672 35058 ft 518 kts 35°
2026-05-03 22:42 25.76894 126.17699 35212 ft 522 kts 34°
2026-05-03 22:42 25.79718 126.20237 35711 ft 521 kts 34°
2026-05-03 22:42 25.82536 126.22772 36070 ft 522 kts 34°
2026-05-03 22:42 25.85346 126.25289 36527 ft 520 kts 34°
2026-05-03 22:43 25.88157 126.27809 36880 ft 520 kts 34°
2026-05-03 22:43 25.90976 126.30346 37098 ft 520 kts 34°
2026-05-03 22:43 25.93792 126.32879 37015 ft 518 kts 33°
2026-05-03 22:44 25.99380 126.37866 37033 ft 516 kts 33°
2026-05-03 22:44 26.04955 126.42905 37071 ft 519 kts 34°
2026-05-03 22:45 26.10508 126.48060 37061 ft 520 kts 35°
2026-05-03 22:45 26.16061 126.53159 37054 ft 519 kts 33°
2026-05-03 22:46 26.21725 126.58184 37057 ft 519 kts 34°
2026-05-03 22:46 26.27332 126.63275 37065 ft 519 kts 34°
2026-05-03 22:47 26.32913 126.68330 37042 ft 519 kts 34°
2026-05-03 22:47 26.38589 126.73289 37046 ft 519 kts 31°
2026-05-03 22:48 26.44449 126.77959 37057 ft 519 kts 30°
2026-05-03 22:48 26.50335 126.82639 37047 ft 519 kts 31°
2026-05-03 22:49 26.56202 126.87335 37049 ft 520 kts 30°
2026-05-03 22:49 26.62112 126.92065 37056 ft 520 kts 30°
2026-05-03 22:50 26.67996 126.96767 37053 ft 521 kts 31°
2026-05-03 22:50 26.73875 127.01465 37057 ft 522 kts 30°
2026-05-03 22:51 26.79802 127.06197 37055 ft 523 kts 30°
2026-05-03 22:51 26.85704 127.10901 37054 ft 522 kts 30°
2026-05-03 22:52 26.91625 127.15624 37053 ft 522 kts 30°
2026-05-03 22:52 26.97546 127.20342 37058 ft 523 kts 30°
2026-05-03 22:53 27.03457 127.25053 37058 ft 524 kts 30°
2026-05-03 22:53 27.09424 127.29805 37051 ft 525 kts 30°
2026-05-03 22:54 27.15350 127.34591 37049 ft 525 kts 31°
2026-05-03 22:54 27.21287 127.39404 37056 ft 526 kts 30°
2026-05-03 22:55 27.27243 127.44193 37061 ft 527 kts 30°
2026-05-03 22:55 27.33185 127.49002 37054 ft 527 kts 30°
2026-05-03 22:56 27.39143 127.53796 37058 ft 526 kts 30°
2026-05-03 22:56 27.45096 127.58613 37065 ft 527 kts 30°
2026-05-03 22:57 27.50821 127.63790 37067 ft 532 kts 38°
2026-05-03 22:57 27.56047 127.69737 37056 ft 536 kts 43°
2026-05-03 22:58 27.61158 127.75829 37047 ft 537 kts 42°
2026-05-03 22:58 27.66356 127.81857 37050 ft 536 kts 41°
2026-05-03 22:59 27.71570 127.87889 37057 ft 536 kts 41°
2026-05-03 22:59 27.76742 127.93915 37063 ft 537 kts 41°
2026-05-03 23:00 27.81972 127.99957 37054 ft 538 kts 42°
2026-05-03 23:00 27.87165 128.06001 37059 ft 538 kts 41°
2026-05-03 23:01 27.92420 128.12073 37054 ft 538 kts 41°
2026-05-03 23:01 27.97639 128.18132 37051 ft 538 kts 41°
2026-05-03 23:02 28.02846 128.24162 37051 ft 537 kts 41°
2026-05-03 23:02 28.08056 128.30185 37054 ft 538 kts 41°
2026-05-03 23:03 28.13265 128.36241 37052 ft 538 kts 42°
2026-05-03 23:03 28.18457 128.42348 37045 ft 539 kts 41°
2026-05-03 23:04 28.23704 128.48450 37047 ft 539 kts 41°
2026-05-03 23:04 28.28903 128.54594 37050 ft 541 kts 42°
2026-05-03 23:05 28.34060 128.60747 37050 ft 540 kts 42°
2026-05-03 23:05 28.39275 128.66921 37048 ft 541 kts 43°
2026-05-03 23:06 28.44461 128.73067 37036 ft 540 kts 42°
2026-05-03 23:06 28.49662 128.79228 37039 ft 541 kts 42°
2026-05-03 23:07 28.54865 128.85385 37038 ft 541 kts 42°
2026-05-03 23:07 28.60079 128.91547 37038 ft 541 kts 42°
2026-05-03 23:08 28.65282 128.97704 37053 ft 542 kts 42°
2026-05-03 23:08 28.70542 129.03903 37050 ft 543 kts 42°
2026-05-03 23:09 28.75773 129.10091 37038 ft 543 kts 42°
2026-05-03 23:09 28.80973 129.16240 37035 ft 543 kts 42°
2026-05-03 23:10 28.86176 129.22502 37033 ft 543 kts 43°
2026-05-03 23:10 28.91400 129.28754 37039 ft 543 kts 42°
2026-05-03 23:11 28.96615 129.34988 37042 ft 544 kts 42°
2026-05-03 23:11 29.01828 129.41213 37029 ft 543 kts 41°
2026-05-03 23:12 29.07076 129.47395 37031 ft 543 kts 42°
2026-05-03 23:12 29.12297 129.53657 37027 ft 544 kts 42°
2026-05-03 23:13 29.17508 129.59904 37031 ft 544 kts 42°
2026-05-03 23:13 29.22746 129.66150 37031 ft 545 kts 42°
2026-05-03 23:14 29.27999 129.72415 37019 ft 545 kts 42°
2026-05-03 23:14 29.33237 129.78668 37024 ft 546 kts 42°
2026-05-03 23:15 29.38511 129.84947 37029 ft 547 kts 42°
2026-05-03 23:15 29.43775 129.91214 37018 ft 547 kts 42°
2026-05-03 23:16 29.49030 129.97469 37028 ft 547 kts 42°
2026-05-03 23:16 29.54326 130.03778 37021 ft 548 kts 42°
2026-05-03 23:17 29.59608 130.10080 37013 ft 548 kts 43°
2026-05-03 23:17 29.64688 130.16618 37012 ft 549 kts 45°
2026-05-03 23:18 29.69719 130.23207 37011 ft 549 kts 45°
2026-05-03 23:18 29.74814 130.29758 37002 ft 549 kts 45°
2026-05-03 23:19 29.79865 130.36320 37000 ft 550 kts 45°
2026-05-03 23:19 29.84967 130.42889 36997 ft 550 kts 44°
2026-05-03 23:20 29.90030 130.49440 36996 ft 550 kts 44°
2026-05-03 23:20 29.95139 130.56038 36993 ft 551 kts 44°
2026-05-03 23:21 30.00382 130.62434 36974 ft 546 kts 35°
2026-05-03 23:21 30.06568 130.67192 37009 ft 531 kts 20°
2026-05-03 23:22 30.16552 130.72809 36948 ft 532 kts 20°
2026-05-03 23:22 30.23116 130.76730 36960 ft 535 kts 21°
2026-05-03 23:23 30.29713 130.80731 36970 ft 537 kts 21°
2026-05-03 23:23 30.36366 130.84724 36962 ft 535 kts 20°
2026-05-03 23:24 30.43000 130.88600 36967 ft 535 kts 21°
2026-05-03 23:24 30.49585 130.92638 36970 ft 537 kts 21°
2026-05-03 23:25 30.56189 130.96693 36975 ft 537 kts 21°
2026-05-03 23:25 30.62612 131.01248 36977 ft 545 kts 31°
2026-05-03 23:26 30.68594 131.06653 36976 ft 547 kts 34°
2026-05-03 23:26 30.74536 131.12143 36965 ft 547 kts 33°
2026-05-03 23:27 30.80550 131.17555 36957 ft 546 kts 33°
2026-05-03 23:27 30.86543 131.23004 36970 ft 548 kts 33°
2026-05-03 23:28 30.92552 131.28507 36961 ft 549 kts 33°
2026-05-03 23:28 30.98576 131.33989 36954 ft 550 kts 33°
2026-05-03 23:29 31.04581 131.39496 36951 ft 548 kts 33°
2026-05-03 23:29 31.10589 131.44959 36949 ft 549 kts 33°
2026-05-03 23:30 31.16597 131.50438 36939 ft 551 kts 32°
2026-05-03 23:30 31.22615 131.55995 36931 ft 553 kts 33°
2026-05-03 23:31 31.28680 131.61540 36936 ft 552 kts 32°
2026-05-03 23:31 31.34724 131.67102 36917 ft 552 kts 34°
2026-05-03 23:32 31.40691 131.72655 36921 ft 553 kts 33°
2026-05-03 23:32 31.46744 131.78235 36919 ft 553 kts 33°
2026-05-03 23:33 31.52769 131.83821 36921 ft 555 kts 33°
2026-05-03 23:33 31.58887 131.89436 36921 ft 555 kts 33°
2026-05-03 23:34 31.64962 131.95041 36920 ft 556 kts 33°
2026-05-03 23:34 31.70961 132.00691 36925 ft 557 kts 33°
2026-05-03 23:35 31.77046 132.06378 36914 ft 556 kts 33°
2026-05-03 23:35 31.83074 132.12022 36921 ft 558 kts 33°
2026-05-03 23:36 31.89180 132.17737 36910 ft 558 kts 33°
2026-05-03 23:36 31.95243 132.23383 36904 ft 559 kts 32°
2026-05-03 23:37 32.01344 132.29048 36903 ft 560 kts 33°
2026-05-03 23:37 32.07424 132.34821 36904 ft 561 kts 34°
2026-05-03 23:38 32.13490 132.40533 36884 ft 560 kts 33°
2026-05-03 23:38 32.19604 132.46223 36888 ft 561 kts 33°
2026-05-03 23:39 32.25674 132.52042 36887 ft 562 kts 34°
2026-05-03 23:39 32.31737 132.57854 36893 ft 562 kts 33°
2026-05-03 23:40 32.37811 132.63640 36890 ft 562 kts 34°
2026-05-03 23:40 32.43927 132.69481 36865 ft 563 kts 34°
2026-05-03 23:41 32.50019 132.75295 36870 ft 564 kts 34°
2026-05-03 23:41 32.56104 132.81091 36857 ft 564 kts 34°
2026-05-03 23:42 32.62244 132.86940 36862 ft 564 kts 34°
2026-05-03 23:42 32.68322 132.92732 36868 ft 566 kts 34°
2026-05-03 23:43 32.74400 132.98695 36854 ft 569 kts 39°
2026-05-03 23:43 32.79561 133.05853 36889 ft 575 kts 53°
2026-05-03 23:44 32.84005 133.13728 36858 ft 575 kts 54°
2026-05-03 23:44 32.88520 133.21558 36845 ft 575 kts 53°
2026-05-03 23:45 32.93123 133.29272 36846 ft 575 kts 52°
2026-05-03 23:45 32.97720 133.37039 36849 ft 575 kts 53°
2026-05-03 23:46 33.02345 133.44823 36838 ft 575 kts 53°
2026-05-03 23:46 33.06943 133.52606 36842 ft 575 kts 53°
2026-05-03 23:47 33.11465 133.60402 36834 ft 575 kts 53°
2026-05-03 23:47 33.16025 133.68204 36230 ft 576 kts 54°
2026-05-03 23:48 33.18336 133.72153 35640 ft 576 kts 54°
2026-05-03 23:48 33.19706 133.74501 35297 ft 575 kts 54°
2026-05-03 23:48 33.21990 133.78420 34696 ft 574 kts 54°
2026-05-03 23:48 33.24262 133.82309 34090 ft 571 kts 54°
2026-05-03 23:49 33.26513 133.86134 33488 ft 567 kts 54°
2026-05-03 23:49 33.28775 133.89983 32909 ft 563 kts 54°
2026-05-03 23:49 33.30996 133.93787 32363 ft 559 kts 54°
2026-05-03 23:49 33.33199 133.97584 31807 ft 556 kts 54°
2026-05-03 23:50 33.35390 134.01390 31258 ft 552 kts 54°
2026-05-03 23:50 33.37553 134.05135 30712 ft 549 kts 54°
2026-05-03 23:50 33.39717 134.08872 30150 ft 546 kts 54°
2026-05-03 23:50 33.41892 134.12616 29599 ft 542 kts 54°
2026-05-03 23:51 33.44024 134.16298 29046 ft 539 kts 54°
2026-05-03 23:51 33.46141 134.19961 28523 ft 536 kts 54°
2026-05-03 23:51 33.48266 134.23639 28001 ft 533 kts 53°
2026-05-03 23:51 33.50337 134.27241 27482 ft 530 kts 54°
2026-05-03 23:52 33.52408 134.30850 26961 ft 527 kts 54°
2026-05-03 23:52 33.54470 134.34451 26448 ft 524 kts 54°
2026-05-03 23:52 33.56550 134.38052 25919 ft 521 kts 54°
2026-05-03 23:52 33.58645 134.41536 25386 ft 518 kts 49°
2026-05-03 23:53 33.61033 134.44769 24867 ft 511 kts 38°
2026-05-03 23:53 33.63794 134.47252 24377 ft 495 kts 22°
2026-05-03 23:53 33.66915 134.48868 23908 ft 474 kts
2026-05-03 23:53 33.70059 134.49516 23449 ft 451 kts 351°
2026-05-03 23:54 33.73145 134.49626 23029 ft 443 kts 349°
2026-05-03 23:54 33.76248 134.49795 22549 ft 446 kts 353°
2026-05-03 23:54 33.79347 134.50217 22105 ft 450 kts 358°
2026-05-03 23:54 33.82417 134.50841 21674 ft 451 kts 360°
2026-05-03 23:55 33.85465 134.51543 21202 ft 447 kts
2026-05-03 23:55 33.88516 134.52254 20785 ft 441 kts 360°
2026-05-03 23:55 33.91504 134.52922 20346 ft 435 kts 359°
2026-05-03 23:55 33.94490 134.53569 19907 ft 431 kts 359°
2026-05-03 23:56 33.97428 134.54204 19460 ft 427 kts 359°
2026-05-03 23:56 34.00317 134.54833 19011 ft 424 kts 359°
2026-05-03 23:56 34.03220 134.55478 18555 ft 421 kts 359°
2026-05-03 23:56 34.06102 134.56120 18098 ft 418 kts 359°
2026-05-03 23:57 34.08941 134.56744 17638 ft 415 kts 359°
2026-05-03 23:57 34.11765 134.57367 17188 ft 413 kts 359°
2026-05-03 23:57 34.14597 134.57997 16728 ft 410 kts 359°
2026-05-03 23:57 34.17376 134.58841 16257 ft 418 kts 13°
2026-05-03 23:58 34.19965 134.60519 15818 ft 426 kts 33°
2026-05-03 23:58 34.22073 134.63014 15393 ft 424 kts 49°
2026-05-03 23:58 34.23835 134.65820 14866 ft 421 kts 54°
2026-05-03 23:58 34.25509 134.68694 14356 ft 418 kts 53°
2026-05-03 23:59 34.27235 134.71526 13866 ft 413 kts 51°
2026-05-03 23:59 34.29003 134.74206 13364 ft 408 kts 48°
2026-05-03 23:59 34.30806 134.76799 12886 ft 403 kts 47°
2026-05-03 23:59 34.32610 134.79346 12391 ft 398 kts 47°
2026-05-04 00:00 34.34402 134.81912 11909 ft 394 kts 47°
2026-05-04 00:00 34.36129 134.84422 11422 ft 389 kts 48°
2026-05-04 00:00 34.37841 134.86937 10937 ft 384 kts 48°
2026-05-04 00:00 34.39525 134.89412 10459 ft 379 kts 49°
2026-05-04 00:01 34.41192 134.91852 9978 ft 374 kts 48°
2026-05-04 00:01 34.42840 134.94255 9506 ft 370 kts 48°
2026-05-04 00:01 34.44471 134.96625 9038 ft 365 kts 48°
2026-05-04 00:01 34.46084 134.98970 8568 ft 360 kts 48°
2026-05-04 00:02 34.47664 135.01274 8104 ft 355 kts 48°
2026-05-04 00:02 34.49242 135.03587 7637 ft 350 kts 48°
2026-05-04 00:02 34.50768 135.05826 7166 ft 345 kts 48°
2026-05-04 00:02 34.52275 135.08035 6726 ft 337 kts 48°
2026-05-04 00:03 34.53756 135.10197 6410 ft 325 kts 48°
2026-05-04 00:03 34.55168 135.12260 6094 ft 315 kts 47°
2026-05-04 00:03 34.56553 135.14275 5771 ft 306 kts 47°
2026-05-04 00:03 34.57901 135.16244 5451 ft 297 kts 47°
2026-05-04 00:04 34.59201 135.18143 5133 ft 290 kts 47°
2026-05-04 00:04 34.60463 135.19989 4811 ft 282 kts 47°
2026-05-04 00:04 34.61704 135.21815 4492 ft 275 kts 47°
2026-05-04 00:04 34.62894 135.23578 4243 ft 267 kts 47°
2026-05-04 00:05 34.64070 135.25334 3940 ft 265 kts 47°
2026-05-04 00:05 34.65221 135.27061 3651 ft 260 kts 47°
2026-05-04 00:05 34.66341 135.28748 3377 ft 255 kts 47°
2026-05-04 00:05 34.67252 135.30550 3088 ft 251 kts 74°
2026-05-04 00:06 34.67366 135.32593 2886 ft 236 kts 99°
2026-05-04 00:06 34.66948 135.34482 2555 ft 228 kts 112°
2026-05-04 00:06 34.66183 135.36095 2284 ft 213 kts 135°
2026-05-04 00:06 34.65132 135.37303 2166 ft 204 kts 146°
2026-05-04 00:07 34.63991 135.38300 2046 ft 201 kts 152°
2026-05-04 00:07 34.62791 135.39192 1928 ft 204 kts 158°
2026-05-04 00:07 34.61471 135.39668 1764 ft 192 kts 179°
2026-05-04 00:07 34.60164 135.39771 1671 ft 182 kts 187°
2026-05-04 00:08 34.58917 135.39723 1740 ft 179 kts 190°
2026-05-04 00:08 34.57659 135.39616 1799 ft 180 kts 191°
2026-05-04 00:08 34.56431 135.39349 1724 ft 177 kts 202°
2026-05-04 00:08 34.55354 135.38725 1677 ft 167 kts 225°
2026-05-04 00:09 34.54533 135.37767 1637 ft 163 kts 231°
2026-05-04 00:09 34.53713 135.36816 1674 ft 165 kts 229°
2026-05-04 00:09 34.52898 135.35817 1703 ft 165 kts 233°
2026-05-04 00:09 34.52125 135.34784 1708 ft 164 kts 234°
2026-05-04 00:10 34.51352 135.33740 1710 ft 165 kts 235°
2026-05-04 00:10 34.50619 135.32677 1676 ft 165 kts 236°
2026-05-04 00:10 34.49854 135.31636 1472 ft 165 kts 232°
2026-05-04 00:10 34.49126 135.30582 1231 ft 160 kts 239°
2026-05-04 00:11 34.48484 135.29504 1039 ft 156 kts 240°
2026-05-04 00:11 34.47901 135.28418 897 ft 152 kts 245°
2026-05-04 00:11 34.47404 135.27289 727 ft 153 kts 242°
2026-05-04 00:11 34.46692 135.26309 530 ft 158 kts 224°
2026-05-04 00:12 34.45887 135.25421 328 ft 154 kts 235°
2026-05-04 00:12 34.45311 135.24350 119 ft 151 kts 244°
2026-05-04 00:12 34.44660 135.23322 23 ft 157 kts 233°
2026-05-04 00:12 34.44033 135.22365 13 ft 116 kts 230°
2026-05-04 00:13 34.43680 135.21838 13 ft 49 kts 226°
2026-05-04 00:13 34.43511 135.21710 13 ft 23 kts 201°
2026-05-04 00:13 34.43373 135.21660 13 ft 16 kts 155°
2026-05-04 00:13 34.43397 135.21779 13 ft 17 kts 49°
2026-05-04 00:14 34.43482 135.21893 13 ft 19 kts 47°
2026-05-04 00:14 34.43565 135.22015 13 ft 18 kts 52°
2026-05-04 00:14 34.43647 135.22142 13 ft 20 kts 52°
2026-05-04 00:14 34.43733 135.22278 13 ft 18 kts 43°
2026-05-04 00:15 34.43787 135.22392 13 ft 15 kts 96°
2026-05-04 00:15 34.43728 135.22470 13 ft 8 kts 145°
2026-05-04 00:15 34.43675 135.22517 13 ft 10 kts 143°
2026-05-04 00:15 34.43613 135.22575 13 ft 11 kts 146°
2026-05-04 00:16 34.43541 135.22557 13 ft 12 kts 239°
2026-05-04 00:16 34.43516 135.22494 13 ft 7 kts 235°
2026-05-04 00:16 34.43489 135.22453 13 ft 3 kts 233°
2026-05-04 00:16 34.43487 135.22449 13 ft 0 kts 233°